Flag for Germany Weather past 2 weeks in Monheim am Rhein, North Rhine-Westphalia, Germany

Now
66 °F

Clear.


Feels Like: 66 °F
Forecast: 62 / 80 °F
Wind: 3 mph from North

Location: Duesseldorf

Current Time: Jul 23, 2014 at 2:36:31 AM

Latest Report: Jul 23, 2014 at 1:50 AM


Visibility: 10 mi

Pressure: 30.09 "Hg

Humidity: 83%

Dew point: 61 °F

Location of Monheim am RheinLocation

Historic Weather in Monheim am Rhein — Graph

°F

Monheim am Rhein temperature yesterday

Maximum temperature yesterday: 81 °F (at 4:50 PM)
Minimum temperature yesterday: 68 °F (at 12:20 AM)
Average temperature yesterday: 71 °F

Past Weeks' High & Low Weather Summary

 TemperatureHumidityPressure
High93 °F (Jul 19, 3:50 PM)100% (Jul 9, 6:50 AM)30.18 "Hg (Jul 9, 6:50 AM)
Low54 °F (Jul 9, 6:50 AM)23% (Jul 19, 4:50 PM)29.65 "Hg (Jul 9, 3:50 PM)
Average69 °F74%29.93 "Hg
* Reported Jul 7 6:20 PM — Jul 22 6:50 PM, Monheim am Rhein, Weather by CustomWeather, © 2014

Note: Actual official high and low records may vary slightly from our data, if they occured in-between our weather recording intervals... More about our weather records

Advertising

Monheim am Rhein weather history for previous 24 hours

 ConditionsComfort  
Time TempWeatherWind HumidityBarometerVisibility
6:50 PM
Jul 22
79 °FSunny.14 mph54%30.04 "Hg10 mi
6:20 PM79 °FPartly sunny.13 mph54%30.04 "HgN/A
5:50 PM79 °FPartly sunny.14 mph58%30.04 "HgN/A
5:20 PM79 °FSunny.13 mph58%30.04 "Hg10 mi
4:50 PM81 °FSunny.13 mph58%30.04 "Hg10 mi
4:20 PM79 °FSunny.13 mph58%30.04 "Hg10 mi
3:50 PM79 °FSunny.12 mph61%30.04 "Hg10 mi
3:20 PM77 °FSunny.13 mph61%30.07 "Hg10 mi
2:50 PM75 °FSunny.10 mph65%30.07 "Hg10 mi
2:20 PM75 °FPartly sunny.12 mph69%30.07 "HgN/A
1:50 PM75 °FPartly sunny.14 mph65%30.07 "HgN/A
1:20 PM73 °FPartly sunny.10 mph69%30.07 "HgN/A
12:50 PM73 °FPartly sunny.9 mph69%30.07 "HgN/A
12:20 PM72 °FPartly sunny.12 mph73%30.07 "HgN/A
11:50 AM72 °FPartly sunny.12 mph73%30.04 "HgN/A
11:20 AM70 °FPartly sunny.10 mph78%30.04 "HgN/A
10:50 AM70 °FPartly sunny.8 mph78%30.04 "HgN/A
10:20 AM68 °FPartly sunny.8 mph83%30.04 "HgN/A
9:50 AM68 °FPartly sunny.8 mph88%30.04 "HgN/A
9:20 AM68 °FPartly sunny.9 mph83%30.04 "HgN/A
8:50 AM68 °FPartly sunny.8 mph88%30.04 "Hg5 mi
8:20 AM68 °FPartly sunny.8 mph94%30.01 "Hg4 mi
7:50 AM68 °FFog.7 mph94%30.01 "Hg2 mi
7:20 AM68 °FFog.7 mph94%30.01 "Hg2 mi
6:50 AM68 °FFog.6 mph94%30.01 "Hg1 mi
6:20 AM68 °FFog.7 mph94%29.98 "Hg1 mi
5:50 AM68 °FLight rain. Fog.6 mph94%29.98 "Hg2 mi
5:20 AM68 °FFog.2 mph94%29.98 "Hg2 mi
4:50 AM68 °FFog.5 mph94%29.98 "Hg2 mi
4:20 AM68 °FFog.6 mph94%29.98 "Hg2 mi
3:50 AM68 °FFog.5 mph94%29.98 "Hg2 mi
3:20 AM68 °FFog.5 mph94%29.98 "Hg2 mi
2:50 AM68 °FDrizzle. Fog.6 mph94%29.98 "Hg2 mi
2:20 AM68 °FLight rain. Low clouds.5 mph94%29.98 "Hg2 mi
Weather by CustomWeather, © 2014

See weather overviewHow to use our weather pages